Content
SEND FEEDBACK

Daily
Averages
Monthly
Summary
United States of America

WRIGHTSVILLE BEACH, NORTH CAROLINA


Home > North America > United States > North Carolina
Elevation: 25 feet     Latitude: 34 16N     Longitude: 077 54W

WEATHER
 
SELECT A DAY
Number of Records: 208,938;   Date Range: 1/1/95 - 8/12/14
 
SHARE

PRINT THIS DATA

[ ← Previous Day ]
WEATHER ALMANAC - MARCH 14, 2013
[ Next Day → ]
[ °C ]   °F
Weather ElementAverageHighLow
Temperature44.1 °F54 °F (4:53 pm)35.1 °F (6:53 am)
Dewpoint21.4 °F28.9 °F (10:53 pm)17.1 °F (9:53 am)
Humidity42 %62 % (11:53 pm)25 % (4:53 pm)
Barometer30.17 in30.25 in (8:53 am)30.10 in (1:53 am)
Wind Speed10 mph17.3 mph (8:53 am)
Wind Gust26.5 mph (9:53 am)
Weather ElementAverage
Visibility10 mi
Wind DirectionWNW (290 °)

Weather ElementTotal
Precipitation---
Heating Degree Days20.5 (Base 65)
Averaged from 23 records on March 14, 2013
WEATHER CONDITIONS BREAKOUT
WIND DIRECTION BREAKOUT
WEATHER BY HOUR - MARCH 14, 2013
[ °C ]   °F
Local TimeTemperatureDewpointHumidityBarometerVisibilityWind DirectionWind SpeedGust SpeedPrecipitationEventsConditions
1:53 AM44.1 °F23.0 °F43 %30.10 in10.0 miNNW (340°)13.8 mph21.9 mphClear
2:53 AM42.1 °F23.0 °F47 %30.12 in10.0 miNNW (330°)12.7 mphClear
3:53 AM39.0 °F21.9 °F50 %30.13 in10.0 miNNW (330°)12.7 mphClear
4:53 AM37.9 °F19.9 °F48 %30.15 in10.0 miNNW (340°)15.0 mph24.2 mphClear
5:53 AM36.0 °F19.0 °F50 %30.17 in10.0 miNNW (330°)15.0 mph20.7 mphClear
6:53 AM35.1 °F19.0 °F52 %30.19 in10.0 miNW (320°)10.4 mphClear
7:53 AM35.1 °F19.0 °F52 %30.22 in10.0 miNW (320°)10.4 mphClear
8:53 AM37.9 °F18.0 °F45 %30.25 in10.0 miNNW (330°)17.3 mphClear
9:53 AM39.9 °F17.1 °F40 %30.24 in10.0 miNNW (330°)17.3 mph26.5 mphClear
10:53 AM43.0 °F18.0 °F37 %30.24 in10.0 miNW (320°)11.5 mphClear
11:53 AM44.1 °F19.0 °F37 %30.23 in10.0 miNW (310°)10.4 mph23.0 mphClear
12:53 PM46.9 °F19.9 °F34 %30.22 in10.0 miWest (280°)11.5 mph18.4 mphClear
1:53 PM48.9 °F19.9 °F32 %30.19 in10.0 miNNW (340°)6.9 mph20.7 mphClear
2:53 PM52.0 °F21.0 °F30 %30.17 in10.0 miNNW (330°)5.8 mph18.4 mphClear
3:53 PM52.0 °F19.0 °F27 %30.15 in10.0 miVariable5.8 mph19.6 mphClear
4:53 PM54.0 °F19.0 °F25 %30.14 in10.0 miNW (320°)13.8 mphClear
5:53 PM53.1 °F19.0 °F26 %30.13 in10.0 miWest (280°)9.2 mph17.3 mphClear
6:53 PM51.1 °F19.9 °F29 %30.14 in10.0 miWest (280°)8.1 mphClear
7:53 PM48.0 °F24.1 °F39 %30.15 in10.0 miWSW (250°)6.9 mphClear
8:53 PM45.0 °F27.0 °F49 %30.16 in10.0 miSW (230°)3.5 mphClear
9:53 PM44.1 °F28.0 °F53 %30.16 in10.0 miWSW (250°)5.8 mphClear
10:53 PM43.0 °F28.9 °F58 %30.17 in10.0 miWSW (240°)3.5 mphClear
11:53 PM41.0 °F28.9 °F62 %30.17 in10.0 miWest (270°)3.5 mphClear
Hourly data recorded from KILM, located miles away from Wrightsville Beach, North Carolina







STORIES FROM OUR PARTNERS